DW4075 Weather Reports


Display with metric or nautical units.
time (UTC)temp
F
wind
direction
speed
MPH
gust
MPH
rain 1hr
in
rain 24hr
in
rain mn
in
humidity
%
barometer
mb
20260503045437 49 175 1.0 5.0 0.00 0.00 0.00 56 1022.1
20260503044719 50 175 1.0 4.0 0.00 0.00 0.00 55 1022.3
20260503044217 51 175 1.0 5.0 0.00 0.00 0.00 54 1022.4
20260503043717 51 175 2.0 5.0 0.00 0.00 0.00 54 1022.7
20260503043215 52 175 3.0 8.0 0.00 0.00 0.00 53 1022.8
20260503042711 52 175 5.0 10.0 0.00 0.00 0.00 53 1023.0
20260503042205 52 177 6.0 11.0 0.00 0.00 0.00 52 1022.8
20260503041702 52 175 5.0 11.0 0.00 0.00 0.00 53 1022.8
20260503041204 51 174 5.0 9.0 0.00 0.00 0.00 53 1022.5
20260503040701 51 176 5.0 9.0 0.00 0.00 0.00 53 1022.5
20260503040201 51 178 4.0 9.0 0.00 0.00 0.00 54 1022.3
20260503035926 50 178 3.0 9.0 0.00 0.00 0.00 55 1022.1
20260503035202 49 177 4.0 11.0 0.00 0.00 0.00 56 1021.6
20260503034701 48 176 3.0 11.0 0.00 0.00 0.00 58 1021.0
20260503034202 47 219 1.0 5.0 0.00 0.00 0.00 58 1020.5
20260503033928 47 219 0.0 5.0 0.00 0.00 0.00 56 1020.2
20260503033201 47 220 0.0 0.0 0.00 0.00 0.00 55 1020.2
20260503032702 47 220 0.0 0.0 0.00 0.00 0.00 53 1020.2
20260503032157 47 220 0.0 0.0 0.00 0.00 0.00 53 1020.1
20260503031650 47 220 0.0 0.0 0.00 0.00 0.00 53 1020.2
20260503031411 48 220 0.0 0.0 0.00 0.00 0.00 52 1020.2
20260503030649 48 220 0.0 0.0 0.00 0.00 0.00 51 1020.5
20260503030147 49 220 0.0 0.0 0.00 0.00 0.00 50 1020.6
20260503025646 49 220 0.0 0.0 0.00 0.00 0.00 50 1020.6
20260503025141 49 220 0.0 0.0 0.00 0.00 0.00 46 1020.7
20260503024638 50 220 0.0 0.0 0.00 0.00 0.00 46 1021.0
20260503024130 51 220 0.0 0.0 0.00 0.00 0.00 45 1021.2
20260503023630 51 220 0.0 0.0 0.00 0.00 0.00 46 1021.5
20260503023129 51 220 0.0 1.0 0.00 0.00 0.00 44 1021.6
20260503022629 52 220 0.0 2.0 0.00 0.00 0.00 43 1021.8
20260503022357 53 220 1.0 2.0 0.00 0.00 0.00 43 1022.1
20260503021635 53 220 1.0 2.0 0.00 0.00 0.00 42 1022.3
20260503021127 54 220 1.0 3.0 0.00 0.00 0.00 41 1022.4
20260503020624 54 220 0.0 2.0 0.00 0.00 0.00 41 1022.8
20260503020349 55 220 0.0 2.0 0.00 0.00 0.00 41 1023.2
20260503015617 56 220 0.0 2.0 0.00 0.00 0.00 39 1023.4
20260503015328 57 220 0.0 1.0 0.00 0.00 0.00 37 1023.8
20260503014612 58 220 0.0 1.0 0.00 0.00 0.00 37 1024.1
20260503014109 58 220 0.0 2.0 0.00 0.00 0.00 35 1024.4
20260503013606 59 220 1.0 4.0 0.00 0.01 0.00 34 1024.6
20260503013110 60 220 1.0 4.0 0.00 0.01 0.00 32 1024.9
20260503012602 60 220 1.0 4.0 0.00 0.01 0.00 31 1025.1
20260503012102 61 220 2.0 6.0 0.00 0.01 0.00 30 1025.3
20260503011557 61 220 4.0 8.0 0.00 0.02 0.00 29 1025.6
20260503011050 62 221 3.0 8.0 0.00 0.02 0.00 28 1025.8
20260503010548 62 175 2.0 6.0 0.00 0.02 0.00 29 1025.9
20260503010045 62 175 2.0 6.0 0.00 0.03 0.00 28 1026.3
20260503005544 63 174 2.0 7.0 0.00 0.04 0.00 28 1026.4
20260503005044 63 172 2.0 7.0 0.00 0.04 0.00 27 1026.6
20260503004542 64 150 2.0 6.0 0.00 0.04 0.00 28 1026.7
20260503004044 64 135 2.0 7.0 0.00 0.04 0.00 27 1026.9
20260503003542 64 117 2.0 7.0 0.00 0.04 0.00 27 1027.3
20260503003040 65 80 2.0 6.0 0.00 0.04 0.00 25 1027.4
20260503002539 65 82 1.0 6.0 0.00 0.04 0.00 25 1027.6
20260503002037 65 82 2.0 7.0 0.00 0.04 0.00 25 1027.8
20260503001533 65 84 2.0 7.0 0.00 0.04 0.00 24 1027.6
20260503001028 65 159 2.0 8.0 0.00 0.04 0.00 26 1027.8
20260503000522 66 159 3.0 8.0 0.00 0.04 0.00 25 1027.9
20260503000017 66 155 2.0 7.0 0.00 0.04 0.00 25 1028.0
20260502235517 66 173 2.0 7.0 0.00 0.04 0.00 25 1028.0
20260502235018 65 134 2.0 6.0 0.00 0.04 0.00 25 1028.0
20260502234516 65 119 2.0 9.0 0.00 0.04 0.00 25 1027.9
20260502234015 65 118 2.0 9.0 0.00 0.04 0.00 26 1028.1
20260502233509 65 126 3.0 10.0 0.00 0.04 0.00 26 1028.1
20260502233008 65 140 5.0 10.0 0.00 0.04 0.00 26 1028.1
20260502232505 66 147 3.0 10.0 0.00 0.04 0.00 26 1028.3
20260502232005 66 156 2.0 9.0 0.00 0.04 0.00 25 1028.6
20260502231502 66 90 2.0 9.0 0.00 0.04 0.00 27 1028.6
20260502231001 67 111 1.0 9.0 0.00 0.05 0.00 26 1028.7
20260502230456 67 26 2.0 8.0 0.00 0.06 0.00 25 1029.0
20260502225949 67 292 3.0 8.0 0.00 0.07 0.00 27 1029.2
20260502225449 66 267 3.0 8.0 0.00 0.08 0.00 26 1029.2
20260502224949 66 5 3.0 11.0 0.00 0.10 0.00 26 1029.1
20260502224447 66 138 3.0 11.0 0.00 0.11 0.00 27 1029.1
20260502223944 66 147 3.0 9.0 0.00 0.11 0.00 28 1029.2
20260502223442 67 101 3.0 10.0 0.00 0.12 0.00 26 1029.6
20260502222939 67 115 4.0 10.0 0.00 0.12 0.00 26 1029.6
20260502222440 66 263 3.0 10.0 0.00 0.12 0.00 26 1029.5
20260502221939 66 96 3.0 8.0 0.00 0.12 0.00 26 1029.5
20260502221440 66 115 3.0 8.0 0.00 0.12 0.00 28 1030.0
20260502220939 67 127 4.0 9.0 0.00 0.12 0.00 26 1030.1
20260502220658 67 141 3.0 9.0 0.00 0.12 0.00 26 1030.2
20260502215938 67 108 1.0 6.0 0.00 0.12 0.00 25 1030.4
20260502215435 67 198 2.0 9.0 0.00 0.12 0.00 25 1030.4
20260502214935 66 223 3.0 9.0 0.00 0.12 0.00 26 1030.3
20260502214652 66 173 4.0 7.0 0.00 0.12 0.00 28 1030.3
20260502213934 66 167 4.0 9.0 0.00 0.13 0.00 28 1030.4
20260502213430 65 147 3.0 9.0 0.00 0.13 0.00 26 1030.3
20260502212930 65 117 4.0 11.0 0.00 0.13 0.00 27 1030.3
20260502212430 66 163 4.0 11.0 0.00 0.13 0.00 25 1030.8
20260502211930 66 186 4.0 9.0 0.00 0.14 0.00 26 1030.9
20260502211425 66 196 5.0 9.0 0.00 0.14 0.00 28 1031.0
20260502210921 67 159 3.0 9.0 0.00 0.16 0.00 29 1031.4
20260502210419 66 158 4.0 11.0 0.00 0.17 0.00 27 1031.4
20260502205919 66 187 3.0 11.0 0.00 0.18 0.00 29 1031.4
20260502205419 66 198 1.0 7.0 0.00 0.21 0.00 26 1031.4
20260502204919 65 200 4.0 10.0 0.00 0.23 0.00 25 1031.4
20260502204417 66 184 4.0 11.0 0.00 0.25 0.00 30 1031.7
20260502203915 65 156 3.0 10.0 0.00 0.27 0.00 32 1031.7
20260502203414 64 255 2.0 10.0 0.00 0.27 0.00 29 1030.9
20260502203131 64 178 2.0 7.0 0.00 0.27 0.00 29 1030.9
20260502202402 64 176 3.0 9.0 0.00 0.27 0.00 30 1031.2
20260502201900 65 190 2.0 9.0 0.00 0.27 0.00 28 1031.2
20260502201618 64 61 2.0 8.0 0.00 0.27 0.00 29 1031.2
20260502200853 64 118 2.0 8.0 0.00 0.27 0.00 27 1031.0
20260502200353 64 101 2.0 6.0 0.00 0.27 0.00 27 1030.9
20260502200109 64 194 2.0 10.0 0.00 0.27 0.00 27 1031.2
20260502195344 64 208 2.0 10.0 0.00 0.27 0.00 28 1031.2
20260502194842 64 120 2.0 6.0 0.00 0.27 0.00 29 1031.0
20260502194342 63 107 2.0 7.0 0.00 0.27 0.00 27 1031.0
20260502193834 63 109 2.0 7.0 0.00 0.27 0.00 24 1031.2
20260502193332 63 137 2.0 7.0 0.00 0.27 0.00 32 1031.2
20260502192830 62 109 3.0 12.0 0.00 0.27 0.00 30 1031.0
20260502192330 62 146 3.0 12.0 0.00 0.27 0.00 29 1031.0
20260502192056 62 159 2.0 8.0 0.00 0.27 0.00 28 1031.2
20260502191329 62 138 1.0 8.0 0.00 0.27 0.00 29 1031.3
20260502190829 62 51 1.0 7.0 0.00 0.27 0.00 26 1031.3
20260502190329 62 111 2.0 7.0 0.00 0.27 0.00 30 1031.4
20260502185830 62 175 2.0 8.0 0.00 0.27 0.00 32 1031.3
20260502185330 61 165 1.0 8.0 0.00 0.27 0.00 34 1031.0
20260502185059 60 86 1.0 5.0 0.00 0.27 0.00 34 1030.8
20260502184330 60 235 1.0 5.0 0.00 0.27 0.00 35 1030.7
20260502183828 60 234 2.0 6.0 0.00 0.27 0.00 35 1030.8
20260502183330 60 234 2.0 6.0 0.00 0.27 0.00 32 1030.9
20260502182829 60 225 2.0 6.0 0.00 0.27 0.00 42 1031.4
20260502182322 60 220 3.0 7.0 0.00 0.27 0.00 37 1031.2
20260502181818 60 217 3.0 8.0 0.00 0.27 0.00 39 1031.3
20260502181542 60 170 2.0 8.0 0.00 0.27 0.00 34 1031.0
20260502180816 60 13 1.0 7.0 0.00 0.27 0.00 36 1031.2
20260502180315 59 62 2.0 8.0 0.00 0.27 0.00 37 1031.0
20260502164237 55 24 5.0 10.0 0.00 0.27 0.00 59 1029.6
20260502163738 54 19 5.0 10.0 0.00 0.27 0.00 60 1029.5
20260502163734 54 26 5.0 9.0 0.00 0.27 0.00 57 1029.3
20260502162735 53 50 4.0 9.0 0.00 0.27 0.00 61 1029.2
20260502162233 53 55 4.0 9.0 0.00 0.27 0.00 63 1029.0
20260502161735 53 82 5.0 10.0 0.00 0.27 0.00 62 1028.9
20260502161716 52 9 5.0 10.0 0.00 0.27 0.00 63 1028.7
20260502160729 52 34 4.0 8.0 0.00 0.27 0.00 66 1028.6
20260502160230 52 34 4.0 8.0 0.00 0.27 0.00 64 1028.5
20260502152200 48 50 4.0 11.0 0.00 0.27 0.00 73 1027.3
20260502151650 48 50 5.0 12.0 0.00 0.27 0.00 73 1027.0
20260502151147 48 56 4.0 12.0 0.00 0.27 0.00 74 1027.0
20260502150647 47 31 4.0 9.0 0.00 0.27 0.00 79 1026.8
20260502150135 47 31 5.0 10.0 0.00 0.27 0.00 81 1026.7
20260502140109 42 38 3.0 9.0 0.00 0.27 0.00 93 1024.2
20260502130529 36 223 1.0 5.0 0.00 0.27 0.00 97 1021.5
20260502123511 32 216 0.0 2.0 0.00 0.27 0.00 96 1019.0
20260502123017 32 216 0.0 1.0 0.00 0.27 0.00 95 1018.9
20260502122511 32 216 0.0 1.0 0.00 0.27 0.00 95 1018.9
20260502122008 32 216 0.0 1.0 0.00 0.27 0.00 95 1018.9
20260502121507 32 216 0.0 1.0 0.00 0.27 0.00 95 1018.9
20260502121005 32 216 0.0 1.0 0.00 0.27 0.00 95 1018.9
20260502120459 33 216 0.0 0.0 0.00 0.27 0.00 95 1019.0
20260502120432 33 216 0.0 0.0 0.00 0.27 0.00 95 1019.0
20260502115445 33 216 0.0 1.0 0.00 0.27 0.00 95 1019.1
20260502114931 33 216 0.0 1.0 0.00 0.27 0.00 95 1019.3
20260502114430 33 216 0.0 1.0 0.00 0.27 0.00 95 1019.1
20260502113931 33 216 0.0 1.0 0.00 0.27 0.00 95 1019.3
20260502113649 33 216 0.0 1.0 0.00 0.27 0.00 95 1019.3
20260502113408 33 216 0.0 0.0 0.00 0.27 0.00 95 1019.5
20260502112637 33 216 0.0 1.0 0.00 0.27 0.00 95 1019.4
20260502111911 33 216 0.0 1.0 0.00 0.27 0.00 94 1019.4
20260502111409 34 216 0.0 0.0 0.00 0.27 0.00 94 1019.6
20260502110903 34 216 0.0 0.0 0.00 0.27 0.00 94 1019.9
20260502110402 34 216 0.0 0.0 0.00 0.27 0.00 94 1019.9
20260502105910 35 216 0.0 1.0 0.00 0.27 0.00 95 1020.1
20260502105357 35 216 0.0 1.0 0.00 0.27 0.00 95 1020.1
20260502104852 35 216 0.0 0.0 0.00 0.27 0.00 95 1020.1
20260502104349 35 216 0.0 0.0 0.00 0.27 0.00 95 1020.0
20260502103830 36 216 0.0 0.0 0.00 0.27 0.00 95 1020.1
20260502103818 36 216 0.0 0.0 0.00 0.27 0.00 95 1020.1
20260502102822 36 216 0.0 0.0 0.00 0.27 0.00 96 1020.0
20260502102321 36 216 0.0 0.0 0.00 0.27 0.00 96 1020.1
20260502101814 36 216 0.0 0.0 0.00 0.27 0.00 95 1020.0
20260502101304 35 216 0.0 0.0 0.00 0.27 0.00 95 1019.9
20260502100802 35 216 0.0 0.0 0.00 0.27 0.00 95 1019.7
20260502100258 35 216 0.0 0.0 0.00 0.27 0.00 94 1019.5
20260502091202 38 216 0.0 2.0 0.00 0.27 0.00 96 1020.5
20260502090929 38 216 0.0 2.0 0.00 0.27 0.00 96 1020.6
20260502090426 38 216 0.0 2.0 0.00 0.27 0.00 96 1020.6
20260502071526 38 216 2.0 5.0 0.00 0.30 0.00 95 1020.8
20260502071025 38 216 2.0 6.0 0.00 0.30 0.00 95 1020.8
20260502070526 38 216 2.0 6.0 0.00 0.30 0.00 95 1020.8
20260502070026 38 216 2.0 6.0 0.00 0.36 0.00 95 1020.8
20260502065523 38 216 2.0 5.0 0.00 0.36 0.00 95 1020.8
20260502065249 38 216 2.0 5.0 0.00 0.36 0.00 95 1020.7
20260502064515 38 216 1.0 5.0 0.00 0.36 0.00 95 1020.6
20260502064015 38 216 1.0 5.0 0.00 0.36 0.00 95 1020.5
20260502063515 38 216 1.0 5.0 0.00 0.36 0.00 95 1020.5
20260502063007 38 216 2.0 7.0 0.00 0.36 0.00 95 1020.5
20260502062506 38 216 2.0 7.0 0.00 0.36 0.00 95 1020.6
20260502062225 38 216 2.0 7.0 0.00 0.36 0.00 95 1020.5
20260502061503 38 216 2.0 6.0 0.00 0.36 0.00 96 1020.5
20260502061002 38 0.0 0.0 0.00 0.36 0.00 96 1020.5
20260502060501 37 0.0 0.0 0.00 0.36 0.00 95 1283.6
20260502060002 37 216 2.0 5.0 0.00 0.36 0.00 95 1283.6
20260502055648 37 216 2.0 5.0 0.00 0.36 0.36 95 1020.0
20260502055642 37 216 2.0 7.0 0.00 0.36 0.36 95 1020.0
20260502054441 37 216 2.0 7.0 0.00 0.36 0.36 95 1019.7
20260502053931 37 216 3.0 7.0 0.00 0.36 0.36 95 1019.6
20260502053429 37 216 3.0 7.0 0.00 0.36 0.36 95 1019.6
20260502052927 37 215 3.0 7.0 0.00 0.36 0.36 95 1019.4
20260502052423 37 215 3.0 7.0 0.00 0.36 0.36 95 1019.3
20260502052131 37 215 3.0 7.0 0.00 0.36 0.36 95 1019.3
20260502051405 37 215 2.0 6.0 0.00 0.36 0.36 95 1019.3
20260502050905 37 215 1.0 6.0 0.00 0.36 0.36 95 1019.1
20260502050406 37 215 2.0 6.0 0.00 0.36 0.36 95 1019.3
20260502045906 37 215 2.0 6.0 0.00 0.36 0.36 94 1019.1